This is the latest recevied weather packets stored in our database for station/object M0ADS. If no packets are shown the sender has not sent any weather packets the latest 10 day(s).
| Time | Temp. | Humidity | Pressure | Rain* | Wind** | Luminosity | Snow |
|---|---|---|---|---|---|---|---|
| 1777457854 | 15° C | 50% | 1028.5 hPa | 0 mm | - | - | - |
| 1777456955 | 15° C | 54% | 1028.5 hPa | 0 mm | - | - | - |
| 1777456055 | 14.44° C | 55% | 1028.4 hPa | 0 mm | - | - | - |
| 1777455153 | 14.44° C | 58% | 1028.5 hPa | 0 mm | - | - | - |
| 1777454253 | 13.33° C | 62% | 1028.6 hPa | 0 mm | - | - | - |
| 1777453353 | 13.33° C | 66% | 1028.4 hPa | 0 mm | - | - | - |
| 1777452452 | 12.22° C | 68% | 1028.5 hPa | 0 mm | - | - | - |
| 1777451552 | 11.67° C | 70% | 1028.5 hPa | 0 mm | - | - | - |
| 1777450653 | 11.11° C | 73% | 1028.7 hPa | 0 mm | - | - | - |
| 1777449752 | 10.56° C | 75% | 1028.7 hPa | 0 mm | - | - | - |
| 1777448852 | 10° C | 76% | 1028.7 hPa | 0 mm | - | - | - |
| 1777447952 | 9.44° C | 79% | 1028.8 hPa | 0 mm | - | - | - |
| 1777447052 | 8.89° C | 80% | 1028.7 hPa | 0 mm | - | - | - |
| 1777446152 | 8.33° C | 82% | 1028.6 hPa | 0 mm | - | - | - |
| 1777445250 | 7.78° C | 84% | 1028.6 hPa | 0 mm | - | - | - |
| 1777444351 | 7.22° C | 86% | 1028.6 hPa | 0 mm | - | - | - |
| 1777443450 | 6.11° C | 87% | 1028.7 hPa | 0 mm | - | - | - |
| 1777442550 | 5.56° C | 89% | 1028.6 hPa | 0 mm | - | - | - |
| 1777441650 | 5° C | 89% | 1028.5 hPa | 0 mm | - | - | - |
| 1777440750 | 4.44° C | 89% | 1028.4 hPa | 0 mm | - | - | - |
| 1777439848 | 4.44° C | 89% | 1028.4 hPa | 0 mm | - | - | - |
| 1777438948 | 4.44° C | 89% | 1028.4 hPa | 0 mm | - | - | - |
| 1777438048 | 3.89° C | 89% | 1028.5 hPa | 0 mm | - | - | - |
| 1777437146 | 3.89° C | 89% | 1028.5 hPa | 0 mm | - | - | - |
| 1777436245 | 3.89° C | 89% | 1028.5 hPa | 0 mm | - | - | - |
* Rain latest hour (hover to see other rain measurements)
** Current wind speed in m/s (hover to see current wind gust speed)